Weather History for Phuket, Thailand

Change the Weather History Date:

Tuesday, September 4, 2012

  Actual Average Record
Temperature  
Mean Temperature 84 °F -  
Max Temperature 90 °F 87 °F 93 °F (1997)
Min Temperature 77 °F 76 °F 74 °F (2014)
Cooling Degree Days 18    
Growing Degree Days 34 (Base 50)    
Moisture  
Dew Point 75 °F    
Average Humidity 76    
Maximum Humidity 89    
Minimum Humidity 57    
Precipitation  
Precipitation 0.00 in 0.54 in - ()
Sea Level Pressure  
Sea Level Pressure 29.83 in    
Wind  
Wind Speed 7 mph ()    
Max Wind Speed 15 mph    
Max Gust Speed 26 mph    
Visibility 5.6 miles    
Events      
Averages and records for this station are not official NWS values.
T = Trace of Precipitation, MM = Missing Value Source: Averaged Metar Reports

Daily Weather History Graph

Daily Weather History Graph

Search for Another Location

Airport:

Trip Planner

Search our weather history database for the weather conditions in past years. The results will help you decide how hot, cold, wet, or windy it might be!

Date:

Astronomy

Sep. 04, 2012 Rise Set
Actual Time 6:18 AM ICT 6:33 PM ICT
Civil Twilight 5:57 AM ICT 6:54 PM ICT
Nautical Twilight 5:32 AM ICT 7:18 PM ICT
Astronomical Twilight 5:08 AM ICT 7:43 PM ICT
Moon 9:07 PM ICT (9/4) 8:59 AM ICT (9/4)
Length of Visible Light 12h 56m
Length of Day
12h 14m
Waning Gibbous, 87% of the Moon is Illuminated
Sep 4
Waning Gibbous
Sep 8
Last Quarter
Sep 16
New
Sep 23
First Quarter
Sep 30
Full

Hourly Weather History & Observations

Time (ICT) Temp. Heat Index Dew Point Humidity Pressure Visibility Wind Dir Wind Speed Gust Speed Precip Events Conditions
12:30 AM 80.6 °F 86.2 °F 75.2 °F 84% 29.83 in 6.2 mi NW 6.9 mph - N/A   Scattered Clouds
1:00 AM 84 °F - 77 °F 75% 29.80 in 6 mi WNW 4.6 mph - -   Scattered Clouds
1:30 AM 80.6 °F 86.2 °F 75.2 °F 84% 29.83 in 5.6 mi WNW 3.5 mph - N/A   Scattered Clouds
2:00 AM 80.6 °F 86.2 °F 75.2 °F 84% 29.80 in 5.6 mi NW 4.6 mph - N/A   Scattered Clouds
2:30 AM 78.8 °F - 75.2 °F 89% 29.80 in 5.6 mi Calm Calm - N/A   Scattered Clouds
3:00 AM 80.6 °F 86.2 °F 75.2 °F 84% 29.80 in 5.6 mi WNW 5.8 mph - N/A   Scattered Clouds
4:00 AM 80.6 °F 86.2 °F 75.2 °F 84% 29.80 in 5.6 mi WNW 5.8 mph - N/A   Scattered Clouds
5:00 AM 80.6 °F 86.2 °F 75.2 °F 84% 29.80 in 5.6 mi WNW 3.5 mph - N/A   Scattered Clouds
5:30 AM 80.6 °F 86.2 °F 75.2 °F 84% 29.80 in 5.6 mi WNW 5.8 mph - N/A   Scattered Clouds
6:00 AM 80.6 °F 86.2 °F 75.2 °F 84% 29.80 in 5.6 mi NNW 5.8 mph - N/A   Scattered Clouds
6:30 AM 80.6 °F 86.2 °F 75.2 °F 84% 29.83 in 5.6 mi NNW 4.6 mph - N/A   Mostly Cloudy
7:00 AM 81 °F - 77 °F 83% 29.79 in 6 mi Calm Calm - -   Mist
7:00 AM 80.6 °F 86.2 °F 75.2 °F 84% 29.83 in 5.6 mi WNW 3.5 mph - N/A   Mostly Cloudy
8:00 AM 82.4 °F 89.5 °F 75.2 °F 79% 29.86 in 5.6 mi NNW 3.5 mph - N/A   Mostly Cloudy
8:30 AM 84.2 °F 92.3 °F 75.2 °F 74% 29.86 in 5.6 mi NW 4.6 mph - N/A   Scattered Clouds
9:00 AM 86.0 °F 96.9 °F 77.0 °F 74% 29.89 in 5.6 mi NW 8.1 mph - N/A   Scattered Clouds
9:30 AM 86.0 °F 95.1 °F 75.2 °F 70% 29.89 in 5.6 mi WNW 9.2 mph - N/A   Scattered Clouds
10:00 AM 86.0 °F 96.9 °F 77.0 °F 74% 29.89 in 6.2 mi WNW 10.4 mph - N/A   Scattered Clouds
10:30 AM 86.0 °F 96.9 °F 77.0 °F 74% 29.89 in 6.2 mi West 11.5 mph - N/A   Scattered Clouds
11:00 AM 87.8 °F 97.6 °F 75.2 °F 66% 29.89 in 6.2 mi West 13.8 mph - N/A   Scattered Clouds
11:30 AM 87.8 °F 97.6 °F 75.2 °F 66% 29.89 in 6.2 mi WNW 12.7 mph - N/A   Scattered Clouds
12:00 PM 87.8 °F 99.7 °F 77.0 °F 70% 29.89 in 6.2 mi WNW 11.5 mph - N/A   Scattered Clouds
12:30 PM 87.8 °F 97.6 °F 75.2 °F 66% 29.86 in 6.2 mi West 13.8 mph - N/A   Scattered Clouds
1:00 PM 88 °F - 75 °F 57% 29.83 in 6 mi WNW 4.6 mph - -   Scattered Clouds
1:00 PM 87.8 °F 97.6 °F 75.2 °F 66% 29.86 in 5.6 mi West 13.8 mph - N/A   Scattered Clouds
1:30 PM 86.0 °F 95.1 °F 75.2 °F 70% 29.83 in 6.2 mi West 15.0 mph - N/A   Scattered Clouds
2:00 PM 86.0 °F 96.9 °F 77.0 °F 74% 29.83 in 6.2 mi West 13.8 mph - N/A   Scattered Clouds
2:30 PM 87.8 °F 97.6 °F 75.2 °F 66% 29.80 in 6.2 mi West 13.8 mph - N/A   Scattered Clouds
3:00 PM 87.8 °F 97.6 °F 75.2 °F 66% 29.80 in 6.2 mi WNW 12.7 mph 26.5 mph N/A   Scattered Clouds
3:30 PM 86.0 °F 95.1 °F 75.2 °F 70% 29.80 in 6.2 mi WNW 12.7 mph - N/A   Mostly Cloudy
4:00 PM 86.0 °F 95.1 °F 75.2 °F 70% 29.80 in 5.6 mi West 12.7 mph - N/A   Mostly Cloudy
4:30 PM 84.2 °F 92.3 °F 75.2 °F 74% 29.77 in 5.0 mi WNW 12.7 mph - N/A   Mostly Cloudy
5:00 PM 84.2 °F 92.3 °F 75.2 °F 74% 29.77 in 5.0 mi WNW 11.5 mph - N/A   Mostly Cloudy
5:30 PM 84.2 °F 90.9 °F 73.4 °F 70% 29.77 in 5.0 mi WNW 10.4 mph - N/A   Mostly Cloudy
6:00 PM 84.2 °F 92.3 °F 75.2 °F 74% 29.80 in 5.0 mi WNW 9.2 mph - N/A   Mostly Cloudy
6:30 PM 84.2 °F 92.3 °F 75.2 °F 74% 29.80 in 5.0 mi WNW 8.1 mph - N/A   Mostly Cloudy
7:00 PM 84 °F - 76 °F 72% 29.76 in 6 mi West 4.6 mph - -   Scattered Clouds
7:00 PM 82.4 °F 89.5 °F 75.2 °F 79% 29.80 in 5.0 mi WNW 9.2 mph - N/A   Mostly Cloudy
7:30 PM 82.4 °F 89.5 °F 75.2 °F 79% 29.83 in 5.0 mi WNW 3.5 mph - N/A   Mostly Cloudy
8:00 PM 82.4 °F 89.5 °F 75.2 °F 79% 29.83 in 5.0 mi WNW 4.6 mph - N/A   Mostly Cloudy
8:30 PM 82.4 °F 89.5 °F 75.2 °F 79% 29.83 in 5.0 mi NW 4.6 mph - N/A   Mostly Cloudy
9:00 PM 82.4 °F 89.5 °F 75.2 °F 79% 29.86 in 5.0 mi WNW 5.8 mph - N/A   Mostly Cloudy
9:30 PM 82.4 °F 89.5 °F 75.2 °F 79% 29.86 in 5.0 mi WNW 8.1 mph - N/A   Mostly Cloudy
10:00 PM 82.4 °F 89.5 °F 75.2 °F 79% 3.28 in 5.0 mi WNW 6.9 mph - N/A   Mostly Cloudy
10:30 PM 82.4 °F 89.5 °F 75.2 °F 79% 29.89 in 5.0 mi WNW 6.9 mph - N/A   Mostly Cloudy
11:00 PM 82.4 °F 89.5 °F 75.2 °F 79% 29.89 in 5.0 mi WNW 10.4 mph - N/A   Mostly Cloudy
11:30 PM 82.4 °F 89.5 °F 75.2 °F 79% 29.89 in 5.0 mi WNW 5.8 mph - N/A   Mostly Cloudy